www.pogodaiklimat.ru

ПОГОДА в Ламбертвилле, MI

  • Прогноз погоды в Ламбертвилле
  • Монитор погоды в Ламбертвилле
  • Климат в Ламбертвилле

АРХИВ ПОГОДЫ в Ламбертвилле

Время (UTC), дата Ветер
(напр.,м/с)
 
Видим.   Явления Облачность Т
(С)
Тd
(С)
f
(%)
Тe
(С)
Тes
(С)
Комфортность

P
(гПа)

Po
(гПа)
Тmin
(С)
Tmax
(С)
R
(мм)
SD
(см)
00:55 26.03   16 км    ясно  +0.8  -10.4  43  +1  +1      1001.0         
00:56 26.03   16 км    ясно  +0.7  -10.3  44  0  0      1001.0         
01:15 26.03   16 км    ясно  +0.5  -10.3  44  0  0      1001.4         
01:16 26.03   16 км    ясно  +0.5  -10.3  44  0  0      1001.4         
01:35 26.03   16 км    ясно  -0.4  -9.7  49  -1  -1      1001.4         
01:55 26.03   16 км    ясно  -0.4  -9.5  50  -1  -1      1001.4         
02:15 26.03   16 км    ясно  -1.9  -8.7  60  -3  -3      1001.4         
02:16 26.03   16 км    ясно  -2.0  -8.6  61  -3  -3      1001.4         
02:35 26.03   16 км    ясно  -2.5  -8.5  63  -3  -3      1001.4         
02:36 26.03   16 км    ясно  -2.4  -8.5  63  -3  -3      1001.7         
02:55 26.03   16 км    ясно  -2.5  -7.9  66  -3  -3      1001.7         
03:15 26.03   16 км    ясно  -3.1  -8.0  69  -4  -4      1001.7         
03:35 26.03   16 км    ясно  -2.6  -8.0  66  -3  -3      1001.7         
03:36 26.03   16 км    ясно  -2.7  -8.1  66  -3  -3      1001.7         
03:55 26.03   16 км    ясно  -3.2  -7.8  70  -4  -4      1001.7         
03:56 26.03   16 км    ясно  -3.1  -7.8  70  -4  -4      1001.7         
04:15 26.03   16 км    ясно  -3.8  -7.7  74  -5  -5      1002.0         
04:35 26.03   16 км    ясно  -3.8  -7.8  74  -5  -5      1002.0         
04:55 26.03   16 км    ясно  -4.1  -7.9  75  -5  -5      1002.0  -4.1  +3.0     
04:56 26.03   16 км    ясно  -4.1  -7.8  75  -5  -5      1002.0  -4.1  +3.0     
05:15 26.03   16 км    ясно  -4.2  -8.1  74  -5  -5      1002.4         
05:16 26.03   16 км    ясно  -4.2  -8.0  75  -5  -5      1002.4         
05:35 26.03   16 км    ясно  -4.4  -7.7  78  -5  -5      1002.7         
05:55 26.03   16 км    ясно  -3.9  -8.3  71  -5  -5      1003.0         
06:15 26.03   16 км    ясно  -3.7  -8.6  69  -4  -4      1003.0         
06:35 26.03   16 км    ясно  -3.4  -8.4  68  -4  -4      1003.0         
06:36 26.03   16 км    ясно  -3.4  -8.5  68  -4  -4      1003.0         
06:55 26.03   16 км    ясно  -4.6  -8.1  76  -5  -5      1003.0         
06:56 26.03   16 км    ясно  -4.6  -8.1  76  -5  -5      1003.0         
07:15 26.03   16 км    ясно  -4.3  -8.1  75  -5  -5      1003.0         
07:35 26.03   16 км    ясно  -4.6  -8.0  77  -5  -5      1003.0         
07:55 26.03 С  16 км    ясно  -4.3  -8.0  75  -8  -8      1003.0         
07:56 26.03 С  16 км    ясно  -4.2  -8.0  75  -7  -7      1003.0         
08:15 26.03   16 км    ясно  -3.7  -8.5  69  -4  -4      1003.4         
08:16 26.03   16 км    ясно  -3.7  -8.5  69  -4  -4      1003.4         
08:35 26.03   16 км    ясно  -3.6  -8.6  68  -4  -4      1003.4         
08:55 26.03   16 км    ясно  -3.6  -8.8  67  -4  -4      1003.7         
09:15 26.03   16 км    ясно  -3.5  -9.5  63  -4  -4      1004.0         
09:16 26.03   16 км    ясно  -3.6  -9.5  64  -4  -4      1004.0         
09:35 26.03   16 км    ясно  -3.6  -9.5  64  -4  -4      1004.3         
09:36 26.03   16 км    ясно  -3.6  -9.5  64  -4  -4      1004.3         
09:55 26.03   16 км    ясно  -4.0  -9.6  65  -5  -5      1004.7         
10:15 26.03   16 км    ясно  -4.1  -9.9  64  -5  -5      1004.7         
10:35 26.03   16 км    ясно  -4.2  -9.7  65  -5  -5      1005.0         
10:36 26.03   16 км    ясно  -4.2  -9.8  65  -5  -5      1005.0         
10:55 26.03 С  16 км    ясно  -4.4  -9.9  65  -8  -8      1005.3  -4.8  -3.4     
10:56 26.03 С  16 км    ясно  -4.3  -9.9  65  -7  -7      1005.3  -4.8  -3.4     
11:15 26.03 С  16 км    ясно  -3.3  -9.4  63  -6  -6      1005.7         

 

Местоположение метеостанции Toledo Suburban Airport: широта 41.7358 долгота -83.6553 высота над уровнем моря 204 м.

В архиве по умолчанию представлена погода в Ламбертвилле за последние 1-2 суток. Обновление информации о фактической погоде в базе происходит ежечасно! Архивные данные за месяц целиком и за предыдущие месяцы Вы можете получить, выбрав интересующий диапазон дат из раскрывающегося списка и нажав кнопку "Ввод!".

Внимание! Архив погоды МЕТАР в базе сайта хранится не более 60 дней. Нет смысла пытаться выбрать более раннюю дату.

Внимание! Время в таблицах - всемирное. Для получения местного времени необходимо прибавить поправку, которая в Ламбертвилле равна -5 ч.

Ветер - указаны скорость ветра в м/с и направление, откуда дует ветер: С - северный, СВ - северо-восточный, В - восточный, ЮВ - юго-восточный, Ю - южный, ЮЗ - юго-западный, З - западный, СЗ - северо-западный.
Видимость - горизонтальная дальность видимости в метрах или километрах. При видимости от 1 до 10 км при отсутствии осадков обычно наблюдается дымка, при ухудшении видимости до 1 км и менее - туман. В сухую погоду видимость может ухудшаться дымом, пылью или мглою.
Атмосферные явления - указаны явления, наблюдавшиеся в указанный момент времени.
Облачность - указаны через наклонную черту верхняя и нижняя облачность в баллах и высота нижней границы облаков в метрах. Внимание: облачность, как и прочие метеорологические величины в США измеряются автоматическими метеостанциями. Указанные значения в баллах носят условный характер и показывают процент времени, в течение которого, в среднем, лазерный луч высотомера отражался от облаков обратно.
T - Температура воздуха - температура, измеренная на высоте 2 м над землей.
Td - Температура точки росы - температура, при понижении до которой содержащийся в воздухе водяной пар достигнет насыщения.
f - Относительная влажность воздуха - влажноcть воздуха, измеренная на высоте 2 м над землей.
Te - Эффективная температура - температура, которую ощущает одетый по сезону человек в тени. Характеристика душности погоды. При расчете учитывается влияние влажности воздуха и скорости ветра на теплоощущения человека.
Tes - Эффективная температура на солнце - температура, которую ощущает человек, с поправкой на солнечный нагрев. Характеристика знойности погоды. Зависит от высоты солнца над горизонтом, облачности и скорости ветра. Ночью, в пасмурную погоду, а также при ветре 12 м/с и более поправка равна нулю.
P - Атмосферное давление - приведенное к уровню моря атмосферное давление.
Po - Атмосферное давление - измеренное на уровне метеостанции атмосферное давление.
Tmin - Минимальная температура - минимум температуры воздуха на высоте 2 м над землей.
Tmax - Максимальная температура - максимум температуры воздуха на высоте 2 м над землей.
R - Количество осадков - Количество выпавших осадков за 3 или 6 часов, мм.
SD - Снежный покров - Высота снежного покрова, см.